星链-1588 (STARLINK-1588 )

导读 | 豆包AI

STARLINK-1588是美国太空探索技术公司(SpaceX)星链(Starlink)星座的卫星,于2020年8月18日发射。它属于星链低轨互联网卫星,旨在为全球提供高速低延迟宽带互联网服务,是SpaceX大规模构建卫星互联网星座过程中的一员,支撑全球覆盖的组网建设。

Basic Information
目录编号:
46118
目录名称:
STARLINK-1588
国际标识:
2020-057B
轨道中心:
EARTH
卫星名称:
星链-1588
卫星全名:
星链-1588 (STARLINK-1588 )
卫星状态:
已陨落 最后检测时间 2025-06-01
发射日期:
2020-08-18 UTC
国别 :
美国 (US)
星等 :
--
Orbit Information
数据来源 国际轨道数据
星历时间: 2025-06-01T05:24:49+0800
轨道信息已过期332天
半长轴: 6510.802km
偏心率: 0.0007738
轨道倾角: 53.024°
近地点辐角 328.088°
升交点赤经 100.903°
平近点角 140.606°
近地点: 127.628km
远地点: 137.706km
周期: 87.139分钟
每日圈数: 16.525366
Detailed Information
固有亮度:
5
最大亮度:
2.5
卫星平台:
Starlink V1.0
覆盖范围:
全球
运营商:
太空探索技术公司
运营商所在国:
美国
制造商(研发单位):
太空探索技术公司
制造商所在国:
美国
使用方式:
暂无
Satellite Introduction
星链(Starlink)计划是由太空探索技术公司(SpaceX)提出的一个巨型低轨卫星互联网星座项目,计划在2019年至2024年间在太空搭建由约1.2万颗卫星组成的“星链”网络,其中1584颗将部署在地球上空550千米处的近地轨道,并从2020年开始工作。该卫星仍在工作。